Weather History for Bullhead City, AZ

Change the Weather History Date:

Sunday, January 5, 2014

  Actual Average Record
Temperature  
Mean Temperature 55 °F -  
Max Temperature 62 °F 62 °F 73 °F (2003)
Min Temperature 48 °F 46 °F 30 °F (2013)
Degree Days  
Heating Degree Days 10    
Growing Degree Days 5 (Base 50)    
Moisture  
Dew Point 7 °F    
Average Humidity 15    
Maximum Humidity 22    
Minimum Humidity 10    
Precipitation  
Precipitation 0.00 in - - ()
Sea Level Pressure  
Sea Level Pressure 30.22 in    
Wind  
Wind Speed 21 mph (NNE)    
Max Wind Speed 32 mph    
Max Gust Speed 41 mph    
Visibility 10 miles    
Events      
Averages and records for this station are not official NWS values.
T = Trace of Precipitation, MM = Missing Value Source: NWS Daily Summary

Daily Weather History Graph

Daily Weather History Graph

Search for Another Location

Airport:

Trip Planner

Search our weather history database for the weather conditions in past years. The results will help you decide how hot, cold, wet, or windy it might be!

Date:

Astronomy

Jan. 05, 2014 Rise Set
Actual Time 7:47 AM MST 5:40 PM MST
Civil Twilight 7:19 AM MST 6:08 PM MST
Nautical Twilight 6:47 AM MST 6:40 PM MST
Astronomical Twilight 6:16 AM MST 7:10 PM MST
Moon 10:43 AM MST (1/5) 10:59 PM MST (1/5)
Length of Visible Light 10h 49m
Length of Day
9h 53m
Waxing Crescent, 25% of the Moon is Illuminated
Jan 5
Waxing Crescent
Jan 7
First Quarter
Jan 15
Full
Jan 23
Last Quarter
Jan 30
New

Hourly Weather History & Observations

Time (MST) Temp. Dew Point Humidity Pressure Visibility Wind Dir Wind Speed Gust Speed Precip Events Conditions
12:15 AM 55.4 °F 15.8 °F 21% 30.12 in 10.0 mi NNE 25.3 mph 32.2 mph N/A   Clear
12:35 AM 55.4 °F 14.0 °F 20% 30.13 in 10.0 mi NNE 21.9 mph 28.8 mph N/A   Clear
12:55 AM 53.6 °F 15.8 °F 22% 30.14 in 10.0 mi NNE 17.3 mph 23.0 mph N/A   Clear
1:15 AM 53.6 °F 15.8 °F 22% 30.14 in 10.0 mi NNE 17.3 mph 24.2 mph N/A   Clear
1:35 AM 53.6 °F 15.8 °F 22% 30.15 in 10.0 mi NNE 18.4 mph - N/A   Clear
1:55 AM 53.6 °F 14.0 °F 21% 30.16 in 10.0 mi NNE 20.7 mph 28.8 mph N/A   Clear
2:15 AM 53.6 °F 10.4 °F 18% 30.17 in 10.0 mi NNE 20.7 mph - N/A   Clear
2:35 AM 53.6 °F 10.4 °F 18% 30.17 in 10.0 mi NNE 18.4 mph 25.3 mph N/A   Clear
2:55 AM 51.8 °F 10.4 °F 19% 30.18 in 10.0 mi NE 19.6 mph - N/A   Clear
3:15 AM 51.8 °F 10.4 °F 19% 30.19 in 10.0 mi NNE 17.3 mph - N/A   Clear
3:35 AM 51.8 °F 8.6 °F 18% 30.19 in 10.0 mi NNE 18.4 mph - N/A   Clear
3:55 AM 51.8 °F 8.6 °F 18% 30.19 in 10.0 mi NNE 20.7 mph 29.9 mph N/A   Clear
4:15 AM 50.0 °F 6.8 °F 17% 30.20 in 10.0 mi NNE 18.4 mph 23.0 mph N/A   Clear
4:35 AM 50.0 °F 6.8 °F 17% 30.20 in 10.0 mi NNE 20.7 mph 29.9 mph N/A   Clear
4:55 AM 50.0 °F 8.6 °F 19% 30.21 in 10.0 mi NNE 19.6 mph 24.2 mph N/A   Clear
5:15 AM 50.0 °F 8.6 °F 19% 30.20 in 10.0 mi NE 20.7 mph 26.5 mph N/A   Clear
5:35 AM 48.2 °F 8.6 °F 20% 30.21 in 10.0 mi NE 17.3 mph 21.9 mph N/A   Clear
5:55 AM 48.2 °F 10.4 °F 22% 30.21 in 10.0 mi ENE 12.7 mph 24.2 mph N/A   Clear
6:15 AM 48.2 °F 10.4 °F 22% 30.21 in 10.0 mi ENE 12.7 mph - N/A   Clear
6:35 AM 48.2 °F 10.4 °F 22% 30.22 in 10.0 mi NE 13.8 mph - N/A   Clear
6:55 AM 48.2 °F 10.4 °F 22% 30.22 in 10.0 mi NE 16.1 mph 23.0 mph N/A   Clear
7:15 AM 48.2 °F 8.6 °F 20% 30.22 in 10.0 mi NE 18.4 mph 26.5 mph N/A   Clear
7:35 AM 48.2 °F 8.6 °F 20% 30.22 in 10.0 mi NE 18.4 mph 26.5 mph N/A   Clear
7:55 AM 48.2 °F 8.6 °F 20% 30.24 in 10.0 mi NNE 18.4 mph 24.2 mph N/A   Clear
8:15 AM 48.2 °F 6.8 °F 19% 30.24 in 10.0 mi NE 16.1 mph 27.6 mph N/A   Clear
8:35 AM 48.2 °F 6.8 °F 19% 30.24 in 10.0 mi NE 20.7 mph 26.5 mph N/A   Clear
8:55 AM 50.0 °F 6.8 °F 17% 30.26 in 10.0 mi NNE 19.6 mph 26.5 mph N/A   Clear
9:15 AM 50.0 °F 8.6 °F 19% 30.26 in 10.0 mi NNE 23.0 mph 29.9 mph N/A   Clear
9:35 AM 50.0 °F 8.6 °F 19% 30.27 in 10.0 mi NNE 23.0 mph 32.2 mph N/A   Clear
9:55 AM 51.8 °F 6.8 °F 16% 30.28 in 10.0 mi NNE 21.9 mph 29.9 mph N/A   Clear
10:15 AM 53.6 °F 6.8 °F 15% 30.28 in 10.0 mi NNE 26.5 mph 35.7 mph N/A   Clear
10:35 AM 53.6 °F 8.6 °F 16% 30.27 in 10.0 mi NNE 32.2 mph 35.7 mph N/A   Clear
10:55 AM 53.6 °F 6.8 °F 15% 30.28 in 10.0 mi North 27.6 mph 36.8 mph N/A   Clear
11:15 AM 55.4 °F 6.8 °F 14% 30.28 in 10.0 mi North 23.0 mph 31.1 mph N/A   Clear
11:35 AM 55.4 °F 6.8 °F 14% 30.27 in 10.0 mi North 26.5 mph 34.5 mph N/A   Unknown
11:55 AM 55.4 °F 8.6 °F 15% 30.26 in 10.0 mi North 24.2 mph 33.4 mph N/A   Clear
12:15 PM 57.2 °F 5.0 °F 12% 30.24 in 10.0 mi North 26.5 mph 36.8 mph N/A   Clear
12:35 PM 57.2 °F 5.0 °F 12% 30.24 in 10.0 mi North 25.3 mph 33.4 mph N/A   Clear
12:55 PM 57.2 °F 5.0 °F 12% 30.22 in 10.0 mi North 29.9 mph 41.4 mph N/A   Clear
1:15 PM 59.0 °F 5.0 °F 12% 30.21 in 10.0 mi North 29.9 mph 34.5 mph N/A   Clear
1:35 PM 59.0 °F 5.0 °F 12% 30.20 in 10.0 mi North 24.2 mph 40.3 mph N/A   Clear
1:55 PM 59.0 °F 5.0 °F 12% 30.20 in 10.0 mi North 25.3 mph 33.4 mph N/A   Clear
2:15 PM 59.0 °F 5.0 °F 12% 30.20 in 10.0 mi North 24.2 mph 34.5 mph N/A   Clear
2:35 PM 60.8 °F 5.0 °F 11% 30.19 in 10.0 mi North 23.0 mph 34.5 mph N/A   Clear
2:55 PM 60.8 °F 5.0 °F 11% 30.19 in 10.0 mi North 21.9 mph 27.6 mph N/A   Clear
3:15 PM 60.8 °F 5.0 °F 11% 30.19 in 10.0 mi North 20.7 mph 32.2 mph N/A   Clear
3:35 PM 62.6 °F 5.0 °F 10% 30.19 in 10.0 mi North 23.0 mph 29.9 mph N/A   Clear
3:55 PM 62.6 °F 5.0 °F 10% 30.19 in 10.0 mi North 21.9 mph 29.9 mph N/A   Clear
4:15 PM 62.6 °F 5.0 °F 10% 30.18 in 10.0 mi North 26.5 mph 31.1 mph N/A   Clear
4:35 PM 60.8 °F 5.0 °F 11% 30.19 in 10.0 mi North 24.2 mph 31.1 mph N/A   Clear
4:55 PM 60.8 °F 8.6 °F 13% 30.19 in 10.0 mi North 24.2 mph 29.9 mph N/A   Clear
5:15 PM 60.8 °F 6.8 °F 12% 30.20 in 10.0 mi North 17.3 mph 25.3 mph N/A   Clear
5:35 PM 59.0 °F 3.2 °F 11% 30.21 in 10.0 mi North 15.0 mph 27.6 mph N/A   Clear
5:55 PM 59.0 °F 1.4 °F 10% 30.21 in 10.0 mi NNE 17.3 mph 26.5 mph N/A   Clear
6:15 PM 59.0 °F 1.4 °F 10% 30.22 in 10.0 mi North 15.0 mph 24.2 mph N/A   Clear
6:35 PM 59.0 °F 5.0 °F 12% 30.22 in 10.0 mi NNE 17.3 mph 20.7 mph N/A   Clear
6:55 PM 57.2 °F 1.4 °F 10% 30.22 in 10.0 mi NNE 18.4 mph 26.5 mph N/A   Clear
7:15 PM 57.2 °F 5.0 °F 12% 30.22 in 10.0 mi NNE 19.6 mph 26.5 mph N/A   Clear
7:35 PM 57.2 °F 1.4 °F 10% 30.22 in 10.0 mi NNE 26.5 mph 31.1 mph N/A   Clear
7:55 PM 57.2 °F 3.2 °F 11% 30.23 in 10.0 mi NNE 23.0 mph 27.6 mph N/A   Clear
8:15 PM 57.2 °F 3.2 °F 11% 30.23 in 10.0 mi NNE 23.0 mph 28.8 mph N/A   Clear
8:35 PM 57.2 °F 5.0 °F 12% 30.24 in 10.0 mi NNE 20.7 mph - N/A   Clear
8:55 PM 57.2 °F 5.0 °F 12% 30.24 in 10.0 mi North 21.9 mph 28.8 mph N/A   Clear
9:15 PM 57.2 °F 5.0 °F 12% 30.25 in 10.0 mi North 20.7 mph 26.5 mph N/A   Clear
9:35 PM 55.4 °F 5.0 °F 13% 30.26 in 10.0 mi NNE 19.6 mph 25.3 mph N/A   Clear
9:55 PM 55.4 °F 5.0 °F 13% 30.26 in 10.0 mi NNE 20.7 mph 26.5 mph N/A   Clear
10:15 PM 55.4 °F 8.6 °F 15% 30.26 in 10.0 mi NNE 21.9 mph 32.2 mph N/A   Clear
10:35 PM 55.4 °F 6.8 °F 14% 30.27 in 10.0 mi NNE 20.7 mph 29.9 mph N/A   Clear
10:55 PM 55.4 °F 6.8 °F 14% 30.27 in 10.0 mi NNE 23.0 mph 28.8 mph N/A   Clear
11:15 PM 53.6 °F 8.6 °F 16% 30.27 in 10.0 mi North 21.9 mph 27.6 mph N/A   Clear
11:35 PM 55.4 °F 6.8 °F 14% 30.28 in 10.0 mi North 21.9 mph 32.2 mph N/A   Clear
11:55 PM 53.6 °F 6.8 °F 15% 30.27 in 10.0 mi North 23.0 mph 31.1 mph N/A   Clear